Cloud_Cover
0 0 0 0 0 0 0 0 0 0 0 0 0 0 0 0 0 0 0 0 0 0 0 0 0 0 0 0 0 0 0 0 0 0 0 0 0 0 0 0 0 0 0 0 0 0 0 20 32 36 36 44 56 64 68 68 64 56 56 64 64 64 68 76 76 68 64 56 56
0 0 0 0 0 0 0 0 0 0 0 0 0 0 0 0 0 0 0 0 0 0 0 0 0 0 0 0 0 0 0 0 0 0 0 0 0 0 0 0 0 0 0 0 0 0 0 0 0 20 32 36 44 56 64 56 68 68 64 64 56 64 68 80 76 80 80 76 64
0 0 0 0 0 0 0 0 0 0 0 0 0 0 0 0 0 0 0 0 0 0 0 0 0 0 0 0 0 0 0 0 0 0 0 0 0 0 0 0 0 0 0 0 0 0 0 0 0 0 8 32 36 44 48 48 68 68 64 64 64 56 56 64 64 76 80 68 68
0 0 0 0 0 0 0 0 0 0 0 0 0 0 0 0 0 0 0 0 0 0 0 0 0 0 0 0 0 0 0 0 0 0 0 0 0 0 0 0 0 0 0 0 0 0 0 0 0 0 0 0 24 36 44 56 68 68 64 56 64 64 56 44 48 56 68 68 64
0 0 0 0 0 0 0 0 0 0 0 0 0 0 0 0 0 0 0 0 0 0 0 0 0 0 0 0 0 0 0 0 0 0 0 0 0 0 0 0 0 0 0 0 0 0 0 0 0 0 0 0 0 20 44 56 48 48 48 56 68 64 48 44 48 56 56 56 56
0 0 0 0 0 0 0 0 0 0 0 0 0 0 0 0 0 0 0 0 0 0 8 0 0 0 0 0 0 0 0 0 0 0 0 0 0 0 0 0 0 0 0 0 0 0 0 0 0 0 0 0 0 0 12 32 36 36 36 48 56 48 48 56 56 64 68 64 68
0 0 0 0 0 0 0 0 0 0 0 0 0 0 0 0 0 8 12 8 0 0 0 0 0 0 0 0 0 0 0 0 0 0 0 0 0 0 0 0 0 0 0 0 0 0 0 0 0 0 0 0 0 0 8 12 36 36 36 56 44 36 36 44 48 56 64 56 64
0 0 0 0 0 0 0 0 0 0 0 0 0 0 0 0 0 0 0 0 0 0 0 0 0 0 0 0 0 0 0 0 0 0 0 0 0 0 0 0 0 0 0 0 0 0 0 0 0 0 0 0 0 0 0 0 8 8 20 44 36 44 48 48 44 44 48 56 64
0 0 0 0 0 0 0 0 0 0 0 0 0 0 0 0 0 0 0 0 0 0 0 0 0 0 0 0 0 0 0 0 0 0 0 0 0 0 0 0 0 0 0 0 0 0 0 0 0 0 0 0 0 0 0 0 0 0 0 8 32 44 44 44 44 44 48 44 64
0 0 0 0 0 0 0 0 0 0 0 0 0 0 0 0 0 0 0 0 0 0 0 0 0 0 0 0 0 0 0 0 0 0 0 0 0 0 0 0 0 0 0 0 0 0 0 0 0 0 0 0 0 0 0 0 12 12 8 0 0 20 36 36 44 44 44 44 48
0 0 0 0 0 0 0 0 0 0 0 0 0 0 0 0 0 0 0 0 0 0 0 0 0 0 0 0 0 0 0 0 0 0 0 0 0 0 0 0 0 0 0 0 0 0 0 0 0 0 0 0 0 0 0 0 0 8 12 8 0 8 24 36 36 44 44 36 44
8 0 0 0 0 0 0 0 0 0 0 0 0 0 0 0 0 0 0 0 0 0 0 0 0 0 0 0 0 0 0 0 0 0 0 0 0 0 0 0 0 0 0 0 0 0 0 0 0 0 0 0 0 0 0 0 0 0 8 12 8 0 0 12 32 32 32 32 36
12 0 0 0 0 0 0 0 0 0 0 0 0 0 0 0 0 0 0 0 0 0 0 0 0 0 0 0 0 0 0 0 0 0 0 0 0 0 0 0 0 0 0 0 0 0 0 0 0 0 0 0 0 0 0 0 0 0 0 8 12 8 0 0 8 12 12 24 32
12 8 0 0 0 0 0 0 0 0 0 0 0 0 0 0 0 0 0 0 0 0 0 0 0 0 0 0 0 0 0 0 0 0 0 0 0 0 0 0 0 0 0 0 0 0 0 0 0 0 0 0 0 0 0 0 0 0 0 0 8 8 8 0 0 0 0 8 20
8 0 0 0 0 0 0 0 0 0 0 0 0 0 0 0 0 0 0 0 0 0 0 0 0 0 0 0 0 0 0 0 0 0 0 0 0 0 0 0 0 0 0 0 0 0 0 0 0 0 0 0 0 0 0 0 8 8 8 0 0 0 8 0 0 0 0 0 0
0 0 0 0 0 0 0 0 0 0 0 0 0 0 0 0 0 0 0 0 0 0 0 0 0 0 0 0 0 0 0 0 0 0 0 0 0 0 0 0 0 0 0 0 0 0 0 0 0 0 0 0 0 0 0 12 36 44 36 20 8 0 0 0 0 0 0 0 12
0 0 0 0 0 0 0 0 0 0 0 0 0 0 0 0 0 0 0 0 0 0 0 0 0 0 0 0 0 0 0 0 0 0 0 0 0 0 0 0 0 0 0 0 0 0 0 0 0 0 0 0 0 0 12 56 64 76 76 64 32 20 12 8 24 20 0 8 48
0 0 0 0 0 0 0 0 0 0 0 0 0 0 0 0 0 0 0 0 0 0 0 0 0 0 0 0 0 0 0 0 0 0 0 0 0 0 0 0 0 0 0 0 0 0 0 0 0 0 0 0 0 20 56 88 76 76 88 80 64 64 64 44 76 48 24 44 76
0 0 0 0 0 0 0 0 0 0 0 0 0 0 0 0 0 0 0 0 0 0 0 0 0 0 0 0 0 0 0 0 0 0 0 0 0 0 0 0 0 0 0 0 0 0 0 0 0 0 0 0 8 44 76 88 80 80 80 88 80 80 80 44 48 48 48 48 48
0 0 0 0 0 0 0 0 0 0 0 0 0 0 0 0 0 0 0 0 0 0 0 0 0 0 0 0 0 0 0 0 0 0 0 0 0 0 0 0 0 0 0 0 0 0 0 0 0 0 0 0 44 64 76 88 88 88 80 76 76 80 76 24 48 48 32 24 48
0 0 0 0 0 0 0 0 0 0 0 0 0 0 0 0 0 0 0 0 0 0 0 0 0 0 0 0 0 0 0 0 0 0 0 0 0 0 0 0 0 0 0 0 0 0 0 0 0 0 0 0 48 68 76 88 88 88 88 80 68 64 48 32 36 32 32 64 48
0 0 0 0 0 0 0 0 0 0 0 0 0 0 0 0 0 0 0 0 0 0 0 0 0 0 0 0 0 0 0 0 0 0 0 0 0 0 0 0 0 0 0 0 0 0 0 0 0 0 0 0 48 64 68 88 88 88 88 88 76 64 56 68 68 68 76 88 68
0 0 0 0 0 0 0 0 0 0 0 0 0 0 0 0 0 0 0 0 0 0 0 0 0 0 0 0 0 0 0 0 0 0 0 0 0 0 0 0 0 0 0 0 0 0 0 0 0 12 36 64 76 80 80 88 88 88 88 88 88 80 80 88 68 64 68 88 88
0 0 0 0 0 0 0 0 0 0 0 0 0 0 0 0 0 0 0 0 0 0 0 0 0 0 0 0 0 0 0 0 0 0 0 0 0 0 12 48 44 36 32 8 12 12 8 0 20 48 80 88 88 88 88 88 88 88 88 88 88 88 88 88 64 48 48 64 80
0 0 0 0 0 0 0 0 0 0 0 0 0 0 0 0 0 0 0 0 0 0 0 0 0 0 0 0 0 0 0 0 20 32 24 8 0 8 24 64 76 48 24 56 56 44 36 64 76 80 88 88 88 88 88 88 88 88 88 88 88 88 88 88 56 44 36 44 48
0 0 0 0 0 0 0 0 0 0 0 0 0 0 0 0 0 0 0 0 0 0 0 0 0 0 0 0 0 0 20 68 48 56 64 44 20 36 76 80 88 80 76 80 80 80 80 88 88 88 88 88 88 88 88 88 88 88 88 88 88 88 88 88 56 48 48 32 44
0 0 0 0 0 0 0 0 0 0 0 0 0 0 0 0 0 0 0 0 0 0 0 0 0 0 0 12 24 24 32 80 44 56 68 36 64 64 44 36 76 88 88 88 88 88 88 88 88 88 88 88 88 88 88 88 88 88 88 88 88 88 88 88 80 80 80 80 80
0 0 0 0 0 0 0 0 0 0 0 0 0 0 0 0 0 0 0 0 0 0 0 0 0 12 36 80 56 44 32 24 44 36 24 24 64 76 80 80 80 80 80 88 88 88 88 88 88 88 88 88 88 88 88 88 88 88 88 88 88 88 88 88 88 88 88 88 88
0 0 0 0 0 0 0 0 0 0 0 0 0 0 0 0 0 0 0 0 0 0 0 0 64 80 80 76 64 64 68 80 80 56 36 36 68 80 80 80 80 80 80 88 88 88 88 88 88 88 88 88 88 88 88 88 88 88 88 88 88 88 88 88 88 88 88 88 88
0 0 0 0 0 0 0 0 0 0 0 0 0 0 0 0 0 0 0 0 0 20 44 64 76 80 80 80 80 80 80 80 64 68 80 80 80 80 76 44 76 80 80 80 80 80 80 80 88 88 88 88 88 88 88 88 88 88 88 88 88 88 88 88 88 76 68 88 88
0 0 0 0 0 0 0 0 0 0 0 0 0 0 0 0 0 0 0 0 24 32 36 80 80 56 44 48 56 68 80 80 88 88 88 88 88 88 88 88 68 76 80 80 80 88 88 88 88 88 88 88 88 88 88 88 88 88 88 88 88 88 88 88 88 88 88 88 88
0 0 0 0 0 0 0 0 0 0 0 0 0 0 0 0 0 0 0 8 36 48 48 56 76 68 64 80 80 80 88 88 80 88 88 88 88 88 88 88 88 80 80 80 76 76 88 88 88 88 88 88 88 88 88 88 88 88 88 88 88 88 88 88 88 88 88 88 88
0 0 0 0 0 0 0 0 0 0 0 0 0 0 0 0 0 0 12 64 76 80 68 36 68 68 64 76 80 80 80 88 88 88 88 88 88 88 88 88 76 56 48 88 88 80 80 80 88 88 88 88 88 88 88 88 88 88 88 80 88 88 88 88 80 88 88 88 88
0 0 0 0 0 0 0 0 0 0 0 0 0 0 0 0 8 12 20 36 68 76 68 68 76 80 76 56 76 88 88 80 80 80 80 92 92 80 76 80 80 76 68 88 88 88 80 80 88 88 88 88 88 88 88 88 88 80 80 80 80 80 88 88 64 68 88 88 88
0 0 0 0 0 0 0 0 0 0 0 0 0 0 0 0 32 56 68 36 68 56 36 36 56 76 88 80 88 88 88 76 68 80 88 88 80 80 76 76 76 80 88 92 88 88 88 88 88 88 88 88 88 88 88 88 88 80 80 76 80 80 76 88 68 68 80 88 88
0 0 0 0 0 0 0 0 0 0 0 0 0 8 12 8 12 36 68 80 80 64 44 44 64 76 80 76 88 88 92 92 88 88 80 76 80 76 76 76 76 88 92 92 92 92 92 92 88 88 88 92 88 88 88 88 88 88 80 80 80 64 56 88 76 56 56 88 88
0 0 0 0 0 0 0 0 0 0 0 0 20 36 44 36 24 32 48 80 76 80 76 56 68 80 88 88 88 88 88 88 92 88 76 64 80 80 80 80 80 88 92 92 92 92 88 88 88 92 92 92 88 88 88 88 88 88 80 80 80 68 64 80 88 76 68 80 88
0 0 0 0 0 0 0 0 0 0 0 8 36 44 56 76 64 68 76 80 80 80 80 64 68 76 76 88 88 80 76 88 88 80 68 64 80 88 92 88 92 92 92 92 92 88 88 88 92 92 92 92 88 88 88 88 88 88 80 80 80 80 80 88 88 88 76 56 68
0 0 0 0 0 0 0 0 0 12 24 24 36 56 76 68 68 76 76 80 80 88 88 80 56 64 68 88 88 80 76 80 88 80 80 76 88 92 92 92 88 88 92 92 92 92 92 92 92 92 92 92 88 88 88 88 88 88 88 88 80 80 80 88 88 88 68 32 64
0 0 0 0 0 0 0 0 0 36 68 56 68 76 76 64 68 76 80 80 88 88 88 88 56 68 88 88 88 80 80 88 88 88 88 88 92 92 92 92 88 80 80 92 92 92 92 92 92 92 92 92 92 88 92 92 88 88 80 88 88 88 80 88 88 88 76 48 68
0 0 0 0 0 0 0 8 12 44 68 76 76 76 76 80 68 64 68 80 88 88 88 88 76 80 88 88 88 80 88 88 88 88 92 92 92 92 92 92 88 80 80 88 92 92 92 92 92 92 92 92 92 92 92 92 88 88 80 80 88 88 88 88 88 80 68 64 68